RH
82 78 78 56 29 34 46 47 47 46 48 49 46 43 37 34 30 29 29 27 29 28 27 28 27 27 25 25 25 24 24 22 22 21 21 21 19 20 20 20 20 19 20 19 20 20 20 20 20 20 20 18
84 85 75 45 35 48 50 49 50 49 49 48 48 47 42 38 33 31 30 29 29 28 29 29 29 28 26 27 25 24 24 23 23 22 22 21 21 21 20 21 20 21 20 20 20 20 20 20 19 20 19 18
90 86 62 42 48 55 53 53 53 51 49 46 45 43 40 36 33 32 30 30 30 30 30 30 30 29 28 27 26 26 25 25 24 24 23 23 23 22 22 22 21 21 21 21 21 21 21 20 20 19 19 19
90 75 52 49 56 56 56 57 55 54 49 45 42 40 38 36 34 34 32 32 31 31 31 31 31 30 30 28 27 27 25 26 26 26 25 25 25 25 25 25 24 24 23 23 22 22 22 21 22 21 20 20
78 62 54 57 58 57 59 58 57 55 49 45 42 39 39 38 37 36 35 34 33 33 32 32 32 31 30 28 27 27 27 27 27 28 28 28 28 28 28 28 28 27 27 27 26 25 24 24 24 23 23 22
65 60 60 59 58 60 60 58 57 54 50 45 42 42 41 40 39 38 37 36 34 33 32 32 31 31 30 29 28 28 29 29 30 32 31 31 31 31 31 31 31 30 30 29 29 29 27 28 27 26 26 25
63 64 61 60 61 62 59 58 56 53 49 45 44 44 43 42 40 38 37 35 35 33 32 32 31 31 31 30 30 30 31 32 33 34 34 35 35 35 35 35 35 34 34 32 31 31 30 30 30 30 29 29
66 64 61 61 62 61 59 56 54 51 48 47 47 45 44 42 40 38 36 35 34 34 33 33 33 33 33 32 33 33 33 34 34 35 36 36 36 37 37 36 37 36 37 37 36 35 34 33 32 32 32 32
66 64 61 62 61 59 57 54 53 51 49 48 47 45 43 40 38 37 36 36 35 35 35 35 35 36 36 36 36 36 36 36 36 36 36 36 37 37 38 38 38 39 39 39 39 39 38 38 36 35 34 34
66 63 60 60 59 57 55 53 52 50 49 48 45 43 41 38 38 37 37 38 38 39 39 39 39 38 37 36 35 34 33 32 32 32 32 33 34 34 35 36 37 37 38 38 39 39 39 39 39 38 37 36
64 61 60 59 57 55 53 52 51 50 48 45 43 40 39 39 39 40 42 43 43 43 41 38 36 33 31 29 27 26 25 25 24 24 25 25 26 26 27 27 28 29 30 31 32 33 34 34 35 37 37 38
62 60 59 57 55 53 51 50 49 47 45 42 40 39 40 42 44 45 46 44 41 37 33 31 28 27 25 24 23 21 20 19 18 17 17 17 17 16 17 17 18 18 18 20 21 22 22 24 25 27 29 32
61 59 57 54 52 51 49 48 47 44 42 40 40 42 45 47 47 45 40 36 32 30 29 28 27 26 25 22 20 18 16 14 13 13 12 12 12 12 12 12 12 12 12 12 13 13 13 15 15 16 19 21
60 56 53 52 50 49 48 47 45 43 41 42 44 46 47 45 41 36 33 31 30 30 30 29 28 25 21 18 16 14 13 13 12 12 12 12 12 12 11 11 11 11 11 11 11 11 11 11 11 11 12 12
56 52 51 50 49 48 47 45 43 42 43 45 47 46 42 37 33 31 31 32 32 32 30 27 23 19 16 14 13 13 13 12 12 12 12 12 12 12 12 11 12 11 11 11 11 11 11 11 11 10 10 10
52 50 50 49 49 48 45 44 42 44 47 47 45 40 36 33 32 33 34 34 32 28 24 20 17 15 14 13 13 13 13 12 12 12 12 12 12 12 12 12 11 12 11 11 11 11 11 11 11 11 11 10
49 49 49 49 48 46 44 44 46 48 48 44 39 35 34 34 35 35 34 31 26 21 17 15 15 14 14 13 13 12 12 12 12 12 12 12 12 12 12 12 12 12 11 12 11 11 11 11 11 11 11 11
49 49 49 49 46 44 44 46 49 48 43 38 35 35 36 36 37 34 30 24 19 17 15 15 15 14 14 13 13 13 12 12 12 12 12 12 12 12 12 12 12 12 11 11 11 11 11 11 11 11 11 11
50 50 49 47 44 44 46 49 48 43 38 36 36 37 38 38 34 28 22 19 17 16 16 16 15 15 14 13 12 12 12 12 12 11 12 12 12 12 12 12 11 11 11 11 11 11 11 11 11 11 11 11
50 49 47 45 44 45 47 48 44 40 38 37 38 39 38 34 28 22 19 18 17 17 16 16 16 15 14 13 12 12 12 11 11 11 11 11 11 11 11 11 11 11 11 11 11 11 11 11 10 11 10 10
49 47 45 43 44 46 48 46 41 39 38 38 40 39 34 28 23 21 20 19 18 17 17 16 15 15 14 13 12 11 11 11 11 11 11 11 11 11 11 11 11 11 11 11 11 11 10 11 10 11 11 10
47 45 44 44 45 47 47 44 41 39 39 40 40 35 28 24 23 23 22 21 20 19 18 17 16 15 13 13 12 11 11 10 11 10 10 11 10 10 10 10 11 10 11 11 11 11 11 11 11 10 10 10
45 44 43 44 46 48 46 43 40 39 41 41 36 29 26 25 25 25 26 25 24 23 21 19 18 16 14 13 11 11 11 10 10 10 10 10 10 10 10 10 11 10 10 11 11 11 11 11 11 11 11 11
41 41 41 43 46 46 45 42 40 41 41 38 31 28 27 28 28 29 30 31 30 30 27 24 21 19 16 13 12 11 11 10 10 10 10 10 10 10 10 10 10 10 11 11 11 11 12 11 12 12 11 12
36 38 40 44 47 46 44 41 41 42 39 33 29 29 29 30 32 33 34 35 37 37 36 33 28 24 20 16 13 11 11 11 10 10 10 10 10 10 10 11 10 11 11 11 12 11 12 13 15 18 17 14
35 38 41 45 47 45 44 41 41 42 36 30 28 29 30 32 34 36 37 39 41 42 43 42 37 31 27 21 16 13 11 11 11 11 11 10 10 10 11 11 11 11 11 12 12 11 14 16 21 27 27 22
34 37 41 46 47 45 43 41 41 41 33 28 29 30 32 34 36 38 40 42 44 45 46 47 45 39 33 28 22 16 13 12 12 12 11 11 11 10 11 11 11 11 11 12 11 13 18 19 20 22 27 32
34 39 43 47 47 45 43 41 42 41 32 27 30 31 34 36 38 40 42 45 48 50 51 51 50 47 41 36 30 23 17 14 14 13 12 12 11 11 11 11 11 12 11 11 12 14 18 20 23 23 25 30
36 40 45 48 46 45 43 41 43 40 31 27 31 33 37 38 40 43 45 49 52 55 57 56 56 53 48 42 37 31 23 18 17 15 14 12 11 11 11 11 11 11 11 12 11 12 16 20 25 29 29 25
37 41 45 47 43 41 41 40 41 39 32 29 33 37 39 40 42 46 49 53 58 62 65 65 63 60 55 50 46 41 33 24 21 19 16 13 11 11 11 11 11 11 11 11 11 10 12 15 18 24 29 28
36 40 44 44 42 40 41 41 41 42 39 34 36 40 41 42 45 49 54 58 63 69 74 75 73 68 63 58 54 51 44 34 27 24 20 14 12 11 11 11 11 11 11 11 13 13 10 11 12 15 20 25
Wind_Speed
4 5 7 9 7 6 6 8 10 11 12 12 11 11 11 10 10 11 11 11 10 10 10 11 11 12 13 12 13 13 13 13 14 14 14 14 14 14 15 15 16 16 17 18 19 19 19 20 19 19 20 20
7 7 9 9 7 6 7 8 10 12 12 12 12 12 11 11 11 12 12 11 11 11 11 12 12 12 13 13 13 13 13 13 14 14 14 14 14 14 14 15 15 15 16 17 18 19 19 20 20 20 19 19
9 9 9 8 6 7 7 9 10 11 12 13 13 12 12 12 13 13 13 13 13 13 13 13 14 14 14 14 14 14 14 14 15 15 15 15 15 14 14 14 15 15 15 16 16 17 18 18 19 20 20 19
10 9 8 7 7 8 8 9 10 11 12 13 13 13 13 14 14 14 14 14 15 15 15 15 15 16 16 16 16 16 16 16 17 17 17 17 17 17 16 16 15 16 16 16 16 16 17 17 17 18 19 19
10 8 7 7 8 8 8 9 10 11 12 12 13 13 13 14 14 14 15 15 15 15 16 16 16 16 17 17 17 18 18 18 18 18 18 18 19 19 19 18 17 17 17 17 17 17 16 17 17 17 17 18
8 7 7 7 8 8 8 9 10 11 11 12 12 13 13 14 14 14 15 15 15 16 16 16 17 17 17 18 18 18 19 19 19 19 19 20 20 20 20 20 20 19 18 18 19 19 18 17 17 17 17 17
7 7 7 8 8 8 8 9 10 10 11 12 12 12 13 14 14 14 15 15 15 16 16 17 17 17 17 18 18 19 19 19 19 20 20 20 21 21 21 21 21 21 21 20 20 20 20 20 19 19 19 18
7 7 7 8 8 8 8 9 10 10 11 11 12 12 13 14 14 14 14 15 15 15 16 16 16 17 17 17 18 18 19 19 19 20 20 21 21 22 22 22 23 23 23 23 22 22 21 22 22 21 21 21
8 8 8 8 8 8 8 9 10 10 11 12 12 13 13 13 13 14 14 14 14 15 15 16 16 17 18 18 19 19 20 20 21 21 22 22 22 23 23 24 24 25 25 25 25 24 24 23 23 23 23 23
9 8 9 9 9 9 9 9 10 11 11 12 13 13 13 13 13 13 13 14 14 15 16 17 18 18 19 20 21 21 22 22 23 24 24 25 25 25 25 25 26 26 26 27 27 26 26 25 25 25 25 24
9 9 9 9 9 9 10 10 11 12 12 13 13 13 13 13 13 13 14 15 16 17 18 19 19 21 21 22 23 24 24 25 25 26 26 27 27 27 28 28 28 28 28 28 28 28 28 28 27 27 26 26
10 10 10 9 10 10 11 11 12 13 13 14 13 13 13 13 14 15 16 17 18 19 19 20 21 22 23 24 25 26 26 26 27 27 27 27 27 28 28 29 29 29 30 30 30 30 30 30 30 29 29 28
11 11 11 11 11 11 12 12 13 14 14 14 13 13 13 15 16 17 18 19 20 21 21 23 23 24 25 26 26 27 27 27 27 27 26 27 27 27 27 28 28 28 29 30 30 31 31 31 32 31 31 31
12 12 12 12 12 13 14 14 14 14 13 13 13 14 15 16 17 18 19 20 22 23 24 25 26 26 26 26 26 26 25 25 25 26 26 26 26 27 27 27 28 28 28 29 29 30 30 31 32 32 32 32
13 13 13 13 14 14 15 15 14 13 13 13 15 16 17 18 19 20 21 23 24 26 26 27 27 26 25 25 25 24 24 24 24 25 25 25 26 26 27 27 27 28 28 28 29 29 29 30 30 31 32 32
14 14 14 15 15 15 15 14 13 13 14 15 16 17 18 19 20 22 24 26 27 27 27 27 26 25 24 24 23 23 23 23 23 23 24 24 25 25 26 26 27 27 27 28 28 29 29 29 30 30 31 31
16 16 16 16 16 16 14 14 13 14 15 16 17 18 19 21 23 25 27 27 27 27 26 25 24 24 23 23 22 22 22 22 22 23 23 24 24 24 25 26 26 27 27 27 28 28 29 29 29 30 30 31
17 17 17 17 16 15 14 14 15 15 16 17 18 20 21 24 25 26 27 26 26 25 25 24 23 23 22 22 22 22 22 22 22 23 23 24 24 24 25 26 26 27 27 27 27 28 28 28 29 29 30 31
19 18 18 17 16 15 15 15 16 17 17 18 20 22 24 25 26 26 25 24 24 23 23 23 22 22 21 21 22 22 22 22 23 23 24 24 25 25 26 26 26 27 27 27 27 28 28 28 29 29 29 30
19 19 18 17 16 16 16 17 17 18 18 20 22 24 25 25 25 24 23 22 22 22 21 21 21 21 21 21 22 22 22 23 23 24 24 25 26 26 26 27 27 28 28 28 28 28 28 28 29 29 30 30
20 20 19 18 18 17 18 18 18 19 20 22 23 25 25 24 23 22 22 22 21 21 20 20 21 21 21 21 22 22 23 23 23 24 25 25 26 26 26 28 29 29 29 29 29 29 29 29 29 29 30 30
21 20 20 19 19 19 19 19 20 21 22 23 24 24 23 22 22 22 22 21 21 21 20 20 21 21 21 21 22 22 23 24 24 24 25 25 26 26 26 27 29 29 30 30 30 30 29 28 29 29 30 30
22 22 21 21 21 21 21 21 21 22 23 24 23 22 21 21 21 21 21 20 20 20 20 21 21 21 21 22 22 23 23 24 25 25 25 26 26 27 27 27 28 29 30 30 31 31 30 29 28 28 29 29
24 23 22 22 23 23 22 22 22 23 23 23 22 20 20 21 21 21 20 20 20 20 21 21 21 21 21 22 22 23 24 24 25 25 25 26 26 27 27 27 29 29 29 31 31 31 32 32 30 30 28 26
25 24 24 24 24 23 23 23 24 24 24 23 21 21 21 21 21 21 21 21 21 21 22 22 22 23 23 23 23 24 24 24 25 25 25 26 26 27 27 27 28 28 29 30 29 30 33 31 28 27 26 25
26 25 25 25 24 24 25 25 25 25 25 23 22 22 22 21 21 21 22 22 23 23 24 24 24 25 24 25 25 25 26 26 26 26 26 26 26 27 27 27 28 28 28 28 28 31 30 23 17 19 23 25
27 26 26 26 26 26 27 27 27 26 25 23 22 22 22 22 21 22 23 23 24 24 25 25 26 26 26 26 26 26 27 27 27 27 27 27 26 26 27 27 28 29 27 26 28 26 21 17 16 18 16 14
28 28 28 28 29 29 29 29 28 27 26 24 23 23 22 22 21 22 23 23 24 25 25 26 26 27 27 27 27 26 26 27 27 27 27 27 26 26 26 26 27 29 27 26 25 21 18 17 16 13 8 13
30 31 31 31 32 32 32 31 30 29 27 25 24 24 23 22 22 23 23 24 25 25 26 26 26 27 27 27 27 27 26 27 27 27 26 26 26 25 25 25 26 28 28 27 24 21 18 14 10 11 13 22
34 34 34 34 34 34 33 33 33 30 27 26 25 25 25 24 24 24 24 24 25 26 26 26 26 26 27 27 27 27 26 26 27 27 26 25 25 25 25 25 25 26 27 28 27 24 21 16 15 18 19 20
37 37 37 37 37 35 35 35 34 31 28 28 28 28 28 27 26 26 26 26 26 26 26 26 27 26 27 27 27 27 27 27 27 27 26 25 24 24 25 25 25 26 26 26 25 25 25 23 22 23 22 19
Wind_Direction
301 318 327 337 351 3 11 18 22 26 26 25 25 23 21 19 17 14 14 13 14 13 10 8 5 4 8 12 11 9 8 5 4 5 5 5 5 4 1 360 358 357 354 351 350 348 347 345 343 342 341 341
301 311 324 335 347 357 7 16 19 21 21 23 22 20 18 14 13 11 8 7 7 6 4 4 0 359 2 6 5 5 4 3 1 359 360 0 1 1 359 357 355 354 352 350 348 347 346 344 343 342 341 339
293 306 320 333 343 355 6 11 13 15 16 16 16 16 13 10 9 6 3 2 1 0 359 358 356 356 357 359 360 0 360 359 358 355 355 355 355 356 356 354 352 350 349 349 348 345 344 343 341 340 340 338
290 304 317 330 344 354 1 4 5 7 9 10 11 9 7 7 4 1 360 358 357 356 355 354 353 354 354 354 355 355 355 355 354 352 351 350 350 351 351 351 350 349 347 346 345 344 342 341 341 339 337 336
290 303 313 329 343 349 353 354 357 359 2 4 4 4 3 1 358 357 356 355 354 353 352 352 352 352 351 351 351 351 351 350 349 348 348 347 346 345 346 346 346 346 344 342 341 341 340 339 338 337 336 334
292 301 309 324 334 339 343 345 348 350 353 356 357 358 357 355 354 353 352 352 351 350 350 350 350 349 348 347 347 346 345 344 344 343 342 341 341 341 341 340 340 340 339 338 337 336 336 336 335 333 333 332
289 297 304 316 324 330 334 336 339 342 345 349 351 351 350 350 349 349 349 349 349 349 349 347 346 345 344 343 341 339 338 337 337 336 335 335 335 335 334 334 334 333 333 333 333 332 331 331 331 330 329 328
285 291 298 307 315 321 324 327 331 334 338 341 343 344 344 344 344 345 346 346 347 346 344 343 342 340 339 337 335 334 332 331 330 330 329 329 328 328 328 328 328 328 328 328 328 328 327 326 325 325 324 323
281 286 293 300 307 311 314 319 323 327 332 334 337 337 337 338 340 341 342 343 343 342 341 339 337 336 334 332 331 330 329 328 327 326 325 324 324 323 323 323 323 323 322 322 322 322 322 321 320 320 319 317
275 280 287 292 299 302 307 313 316 322 326 328 330 331 332 334 337 338 339 339 337 337 336 333 332 330 329 328 327 326 325 324 323 322 321 321 320 320 319 319 318 318 318 318 318 318 318 317 317 316 315 313
266 272 280 285 291 296 302 308 313 318 321 323 324 325 329 332 334 335 334 334 332 331 330 329 327 326 325 324 323 322 320 319 318 317 317 316 316 316 316 316 315 315 315 315 315 315 315 314 314 313 312 312
264 270 277 282 287 293 300 305 310 314 316 318 320 324 328 331 331 330 329 328 326 326 325 324 323 323 322 320 319 318 316 315 315 314 313 313 313 313 313 313 313 314 313 313 313 313 313 312 312 311 310 309
266 272 277 282 287 293 299 304 308 310 312 315 318 323 325 326 325 324 324 323 323 323 322 321 320 319 317 317 316 315 315 315 315 315 314 314 314 313 313 313 313 313 313 313 313 312 312 312 312 311 309 308
266 271 276 281 287 292 297 301 304 306 308 312 315 318 320 321 320 320 320 320 320 319 318 318 317 316 315 315 315 315 316 316 317 317 317 317 317 316 315 315 315 314 314 313 313 312 312 312 311 311 310 308
264 269 274 279 285 289 294 297 299 301 303 308 311 314 316 317 317 318 318 318 318 317 316 316 316 316 316 316 317 317 318 318 319 318 318 318 318 318 317 317 316 315 315 314 313 313 312 312 310 310 310 309
264 268 272 277 282 285 289 290 292 296 300 305 309 311 313 314 315 315 316 316 316 316 316 316 316 317 317 317 317 318 318 318 319 319 318 318 318 318 318 318 317 316 316 315 314 314 313 311 310 310 309 309
265 268 272 276 279 282 284 285 289 296 301 305 307 309 310 312 314 314 315 315 316 316 316 317 317 317 318 318 318 318 318 318 319 319 318 318 319 318 318 317 317 316 316 316 315 314 313 312 311 311 310 310
264 268 272 275 277 279 280 285 292 297 301 303 304 307 309 311 313 313 314 315 316 316 316 316 317 317 317 318 318 318 319 319 320 320 319 319 319 319 318 317 317 317 316 316 316 316 315 314 313 311 310 309
264 267 270 272 274 276 280 287 292 296 298 300 303 306 309 310 311 312 313 314 315 315 315 316 316 317 318 318 319 319 320 321 321 321 321 320 320 320 319 318 318 318 316 316 317 316 315 315 314 313 312 309
263 266 268 270 272 276 282 286 289 292 295 299 303 305 307 308 310 311 312 313 314 314 315 315 316 317 318 319 319 320 321 321 322 322 322 321 321 321 321 319 318 318 317 317 317 316 316 316 315 314 313 312
262 264 266 268 270 275 280 283 287 290 294 298 301 304 305 306 308 310 311 313 313 314 315 316 317 318 319 320 320 321 321 321 322 322 322 322 322 322 322 320 319 320 318 317 318 317 317 318 317 316 315 314
260 260 262 264 269 274 277 281 284 287 291 296 299 300 301 303 305 308 310 312 314 315 316 317 318 319 321 321 321 322 322 322 322 322 323 322 322 321 322 320 319 320 319 318 318 317 318 318 318 316 315 314
257 258 260 264 268 271 274 277 280 284 289 293 295 295 297 299 302 305 309 312 314 316 317 318 320 321 322 322 322 322 322 322 321 322 322 321 322 321 321 321 319 320 320 318 318 318 318 318 317 315 314 313
255 256 259 263 266 269 271 274 277 283 288 290 290 291 294 297 300 304 308 312 316 319 321 322 322 323 323 323 322 321 320 320 320 320 320 320 321 320 321 321 319 321 320 319 321 321 319 320 318 316 315 314
253 255 258 261 264 268 270 273 278 284 288 287 287 290 293 297 301 305 309 313 317 321 324 324 324 324 324 323 322 321 319 318 318 318 319 319 319 319 320 320 319 320 321 322 324 322 322 324 323 320 318 315
250 253 256 260 263 265 268 272 277 282 285 283 285 288 292 296 300 304 308 313 317 320 323 324 324 324 323 323 322 321 319 318 318 318 318 319 320 320 319 319 318 319 323 324 324 324 325 328 327 318 313 311
248 251 254 257 259 261 264 268 272 278 279 278 280 283 287 292 297 301 306 309 313 315 318 319 321 321 321 320 320 321 320 319 319 319 319 319 319 320 320 320 318 319 322 322 323 326 323 321 317 311 305 297
247 249 252 253 255 257 260 264 268 272 272 272 274 277 281 287 291 296 300 304 307 309 311 313 315 316 316 316 317 319 320 319 319 319 319 318 318 318 319 319 318 317 319 319 323 323 317 315 309 304 294 279
245 247 249 250 252 255 257 260 263 265 268 269 270 273 276 281 285 290 293 297 300 302 304 306 308 311 312 312 313 315 317 317 317 316 316 315 315 316 316 316 315 315 316 316 317 315 313 314 297 290 295 295
243 245 247 249 251 253 255 257 260 264 268 268 268 270 273 276 280 283 287 290 293 295 298 300 302 305 307 308 309 311 314 315 315 314 314 314 313 313 312 313 313 313 313 313 313 311 307 301 288 287 294 297
242 244 245 248 251 253 255 257 261 265 266 266 266 268 270 274 277 279 282 284 287 290 293 295 298 300 302 304 306 308 311 314 314 314 313 312 311 310 309 309 309 309 309 309 310 308 304 300 294 289 289 288